Regional Weather Roundup
Issued by NWS Charleston, WV

Home | Current Version | Previous Version | Text Only | Print | Product List | Glossary Off
Versions: 1 2 3 4 5 6 7 8 9 10 11 12 13 14 15 16 17 18 19 20 21 22 23 24 25 26 27 28 29 30 31 32 33 34 35 36 37 38 39 40 41 42 43 44 45 46 47 48 49 50

000
ASUS41 KRLX 041010
RWRRLX
West Virginia Regional Weather Roundup
National Weather Service Charleston WV
600 AM EDT MON MAY 04 2015

Note: "fair" indicates few or no clouds below 12,000 feet with no
significant weather and/or obstructions to visibility.

WVZ003-041100-
Northern Panhandle of West Virginia

CITY           SKY/WX    TMP DP  RH WIND       PRES   REMARKS
WHEELING       CLEAR     55  38  52 S5        30.15S
$$

WVZ009-041100-
Northwest West Virginia

CITY           SKY/WX    TMP DP  RH WIND       PRES   REMARKS
PARKERSBURG    PTCLDY    47  43  86 CALM      30.19R
$$

WVZ006-041100-
Western West Virginia

CITY           SKY/WX    TMP DP  RH WIND       PRES   REMARKS
HUNTINGTON     CLEAR     48  46  93 CALM      30.16R
$$

WVZ015-041100-
West Central West Virginia

CITY           SKY/WX    TMP DP  RH WIND       PRES   REMARKS
CHARLESTON     PTCLDY    48  43  82 CALM      30.18R
$$

WVZ022-031-041100-
North Central West Virginia

CITY           SKY/WX    TMP DP  RH WIND       PRES   REMARKS
CLARKSBURG     CLEAR     45  42  89 CALM      30.18S
MORGANTOWN     CLEAR     50  40  68 CALM      30.19R
$$

WVZ025-035-042-045-041100-
Southern West Virginia

CITY           SKY/WX    TMP DP  RH WIND       PRES   REMARKS
BECKLEY        CLEAR     53  41  63 S6        30.24R
LOGAN            N/A     57  39  51 CALM      30.18R
BLUEFIELD        N/A     60  41  49 SW3       30.27R
LEWISBURG      CLEAR     46  39  78 N3        30.25S
$$

WVZ047-041100-
Northern Mountains of West Virginia

CITY           SKY/WX    TMP DP  RH WIND       PRES   REMARKS
ELKINS         CLEAR     39  37  92 CALM      30.24S FOG
$$

WVZ052-041100-
Eastern Panhandle of West Virginia

CITY           SKY/WX    TMP DP  RH WIND       PRES   REMARKS
MARTINSBURG    CLEAR     49  44  83 CALM      30.19R
PETERSBURG     CLEAR     41  37  87 CALM      30.23S
$$


USA.gov is the U.S. government's official web portal to all federal, state and local government web resources and services.